Regional Weather Roundup
Issued by NWS

Home | Current Version | Previous Version | Text Only | Print | Product List | Glossary Off
Versions: 1 2 3 4 5 6 7 8 9 10 11 12 13 14 15 16 17 18 19 20 21 22 23 24 25 26 27 28 29 30 31 32 33 34 35 36 37 38 39 40 41 42 43 44 45 46 47 48 49 50

943
ASUS43 KOAX 230502
RWRNE

WEATHER ROUNDUP FOR NEBRASKA
NATIONAL WEATHER SERVICE OMAHA NE
1200 AM CDT MON APR 23 2018

NOTES: SATELLITE DATA IS BEING USED TO AUGMENT CLOUD COVER ABOVE
       12000 FEET.
       "FAIR" INDICATES FEW OR NO CLOUDS BELOW 12,000 FEET WITH NO
       SIGNIFICANT WEATHER AND/OR OBSTRUCTIONS TO VISIBILITY.


NEZ001>004-019>022-054>056-230600-
NEBRASKA PANHANDLE

CITY           SKY/WX    TMP DP  RH WIND       PRES   REMARKS
SCOTTSBLUFF    CLEAR     43  40  89 E9        30.13S
ALLIANCE       CLEAR     41  38  89 S12       30.14S
CHADRON        CLEAR     50  40  68 S17       30.10S
GORDON         FAIR      43  37  78 CALM      30.14S
KIMBALL        CLEAR     41  37  87 S7        30.15S
SIDNEY         CLEAR     38  31  76 S7        30.16S WCI  33
$$

NEZ057>060-069>072-079>082-230600-
SOUTHWEST NEBRASKA

CITY           SKY/WX    TMP DP  RH WIND       PRES   REMARKS
NORTH PLATTE   MOCLDY    44  39  82 CALM      30.18S
IMPERIAL       CLEAR     42  38  85 CALM      30.18S
LEXINGTON      CLEAR     42  37  82 W3        30.18S
MCCOOK         CLEAR     43  37  79 CALM      30.18S
OGALLALA       CLEAR     41  36  81 CALM      30.18S
$$

NEZ005>010-023>029-035>040-094-230600-
NORTH CENTRAL NEBRASKA

CITY           SKY/WX    TMP DP  RH WIND       PRES   REMARKS
VALENTINE      CLEAR     45  37  73 SW7       30.16F
AINSWORTH      CLEAR     42  38  86 S6        30.17S
BROKEN BOW     CLEAR     41  36  82 CALM      30.17S
O`NEILL        CLEAR     51  34  51 CALM      30.17F
ORD            CLEAR     41  36  82 CALM      30.17S
THEDFORD       CLEAR     46  38  75 S8        30.19S
$$

NEZ041-046>049-061>064-073>077-083>087-230600-
SOUTH CENTRAL NEBRASKA

CITY           SKY/WX    TMP DP  RH WIND       PRES   REMARKS
GRAND ISLAND   CLOUDY    54  41  61 CALM      30.17F
AURORA         CLOUDY    51  42  70 CALM      30.17S
HASTINGS       CLOUDY    51  43  74 CALM      30.17S
HEBRON         CLOUDY    53  41  64 CALM      30.15S
HOLDREGE       CLOUDY    50  41  69 S3        30.17F
KEARNEY        CLOUDY    52  41  66 CALM      30.18F
YORK             N/A     52  37  58 CALM      30.17S
$$

NEZ011>018-030>034-042>045-230600-
NORTHEAST NEBRASKA

CITY           SKY/WX    TMP DP  RH WIND       PRES   REMARKS
NORFOLK        CLOUDY    51  33  50 E5        30.18R
ALBION         CLOUDY    54  37  52 CALM      30.18S
BLAIR          CLEAR     52  30  43 NE9       30.17S
COLUMBUS       CLOUDY    52  36  54 NE6       30.18S
FREMONT        CLEAR     47  33  58 CALM      30.18S
TEKAMAH        CLEAR     43  30  60 N10       30.18S
WAYNE          CLEAR     46  41  82 E6        30.19S
$$

NEZ050>053-065>068-078-088>093-230600-
SOUTHEAST NEBRASKA

CITY           SKY/WX    TMP DP  RH WIND       PRES   REMARKS
LINCOLN        CLEAR     48  32  53 NW5       30.17R
OMAHA EPPLEY   CLEAR     49  30  48 N10       30.17R
BEATRICE       CLEAR     50  35  55 NE5       30.14F
FALLS CITY     CLEAR     52  38  58 N3        30.12S
NEBRASKA CITY  CLEAR     53  33  47 CALM      30.15S
PLATTSMOUTH    CLEAR     54  28  36 NE8       30.16S
$$

NEZ044-045-051>053-067-230600-
OMAHA AREA

CITY           SKY/WX    TMP DP  RH WIND       PRES   REMARKS
OMAHA EPPLEY   CLEAR     49  30  48 N10       30.17R
BLAIR          CLEAR     52  30  43 NE9       30.17S
FREMONT        CLEAR     47  33  58 CALM      30.18S
MILLARD        CLEAR     55  32  41 CALM      30.16S
PLATTSMOUTH    CLEAR     54  28  36 NE8       30.16S
WAHOO          FAIR      45  28  52 N8        30.17S
$$




USA.gov is the U.S. government's official web portal to all federal, state and local government web resources and services.